Weather History for KHSE - June, 2012

Change the Weather History Date:

Sunday, June 10, 2012

  Actual Average Record
Temperature  
Mean Temperature 79 °F 74 °F  
Max Temperature 84 °F 80 °F 92 °F (1993)
Min Temperature 74 °F 68 °F 54 °F (1997)
Degree Days  
Heating Degree Days 0 0  
Month to date heating degree days 0 0  
Since 1 June heating degree days 0 0  
Since 1 July heating degree days 1688 2584  
Cooling Degree Days 14 9  
Month to date cooling degree days 85 80  
Year to date cooling degree days 410 223  
Since 1 June cooling degree days 85 80  
Growing Degree Days 28 (Base 50)    
Moisture  
Dew Point 68 °F    
Average Humidity 73    
Maximum Humidity 84    
Minimum Humidity 62    
Precipitation  
Precipitation 0.00 in 0.13 in 1.15 in (1904)
Month to date precipitation 1.01 1.22  
Year to date precipitation 23.79 22.46  
Snow  
Snow 0.00 in - - ()
Month to date snowfall 0.0  
Since 1 July snowfall T  
Snow Depth 0.00 in    
Sea Level Pressure  
Sea Level Pressure 30.14 in    
Wind  
Wind Speed 9 mph (WSW)    
Max Wind Speed 14 mph    
Max Gust Speed 20 mph    
Visibility 10 miles    
Events      
T = Trace of Precipitation, MM = Missing Value Source: NWS Daily Summary

Daily Weather History Graph

Daily Weather History Graph

Search for Another Location

Airport or City:

Trip Planner

Search our weather history database for the weather conditions in past years. The results will help you decide how hot, cold, wet, or windy it might be!

Date:

Astronomy

Jun. 10, 2012 Rise Set
Actual Time 5:47 AM EDT 8:16 PM EDT
Civil Twilight 5:17 AM EDT 8:46 PM EDT
Nautical Twilight 4:40 AM EDT 9:23 PM EDT
Astronomical Twilight 4:00 AM EDT 10:03 PM EDT
Moon 12:20 AM EDT (6/10) 12:20 PM EDT (6/10)
Length of Visible Light 15h 28m
Length of Day
14h 29m
Waning Gibbous, 58% of the Moon is Illuminated
Jun 10
Waning Gibbous
Jun 11
Last Quarter
Jun 19
New
Jun 26
First Quarter
Jul 3
Full

Hourly Weather History & Observations

Time (EDT) Temp. Heat Index Dew Point Humidity Pressure Visibility Wind Dir Wind Speed Gust Speed Precip Events Conditions
12:51 AM 75.0 °F - 68.0 °F 79% 30.10 in 10.0 mi West 6.9 mph - N/A   Clear
1:51 AM 75.0 °F - 64.9 °F 71% 30.09 in 10.0 mi West 9.2 mph - N/A   Clear
2:51 AM 73.9 °F - 66.0 °F 76% 30.09 in 10.0 mi West 6.9 mph - N/A   Clear
3:51 AM 75.0 °F - 68.0 °F 79% 30.09 in 10.0 mi West 8.1 mph - N/A   Clear
4:51 AM 73.9 °F - 68.0 °F 82% 30.09 in 10.0 mi West 6.9 mph - N/A   Clear
5:51 AM 73.9 °F - 66.0 °F 76% 30.11 in 10.0 mi West 8.1 mph - N/A   Clear
6:51 AM 75.0 °F - 66.9 °F 76% 30.12 in 10.0 mi West 6.9 mph - N/A   Clear
7:51 AM 75.9 °F - 66.9 °F 74% 30.13 in 10.0 mi West 8.1 mph - N/A   Clear
8:51 AM 78.1 °F - 68.0 °F 71% 30.14 in 10.0 mi West 8.1 mph - N/A   Clear
9:51 AM 78.1 °F - 68.0 °F 71% 30.14 in 10.0 mi West 6.9 mph - N/A   Clear
10:51 AM 81.0 °F 83.8 °F 68.0 °F 65% 30.15 in 10.0 mi West 9.2 mph - N/A   Clear
11:51 AM 81.0 °F 83.3 °F 66.9 °F 62% 30.16 in 10.0 mi West 5.8 mph - N/A   Clear
12:51 PM 82.0 °F 84.9 °F 68.0 °F 62% 30.16 in 10.0 mi WSW 11.5 mph - N/A   Clear
1:51 PM 81.0 °F 83.8 °F 68.0 °F 65% 30.15 in 10.0 mi SW 9.2 mph - N/A   Clear
2:51 PM 82.9 °F 86.5 °F 69.1 °F 63% 30.15 in 10.0 mi SW 9.2 mph - N/A   Clear
3:51 PM 81.0 °F 84.1 °F 69.1 °F 67% 30.15 in 10.0 mi SW 11.5 mph - N/A   Clear
4:51 PM 82.0 °F 84.9 °F 68.0 °F 62% 30.15 in 10.0 mi SW 11.5 mph - N/A   Clear
5:51 PM 80.1 °F 82.1 °F 66.0 °F 62% 30.15 in 10.0 mi SW 11.5 mph - N/A   Clear
6:51 PM 79.0 °F - 66.9 °F 66% 30.15 in 10.0 mi WSW 11.5 mph - N/A   Clear
7:51 PM 77.0 °F - 68.0 °F 74% 30.17 in 10.0 mi WSW 11.5 mph 19.6 mph N/A   Clear
8:51 PM 77.0 °F - 68.0 °F 74% 30.17 in 10.0 mi WSW 10.4 mph - N/A   Clear
9:51 PM 75.9 °F - 68.0 °F 76% 30.19 in 10.0 mi WSW 10.4 mph - N/A   Clear
10:51 PM 75.9 °F - 68.0 °F 76% 30.19 in 10.0 mi WSW 9.2 mph - N/A   Clear
11:51 PM 75.9 °F - 68.0 °F 76% 30.19 in 10.0 mi WSW 10.4 mph - N/A   Clear